NDF3PC EDDH-LSGG

Flight info

Callsign NDF3PC
Flight time 1h 30m
Altitude 36000
Route HABFU1C HABFU Y348 MAWEQ DCT NVO DCT LIMGO/N0445F350 N852 SUTAL DCT GTQ DCT POGOL DCT LASAT DCT MOROK Z24 AKITO AKITO2N
Aircraft A321/M-SDE3FGHIRWY/LB1

Departure

Time 2026-05-07 05:41
Airport Hamburg Helmut Schmidt Airport (EDDH)

Arrival

Time 2026-05-07 07:12
Airport Geneva International Airport (LSGG)
Time Latitude Longitude Altitude Speed Heading
2026-05-07 05:20 53.63374 10.00333 41 ft 0 kts 86°
2026-05-07 05:20 53.63374 10.00332 51 ft 0 kts 86°
2026-05-07 05:20 53.63374 10.00333 51 ft 0 kts 86°
2026-05-07 05:24 53.63374 10.00332 51 ft 0 kts 86°
2026-05-07 05:33 53.63372 10.00301 40 ft 4 kts 86°
2026-05-07 05:33 53.63374 10.00259 49 ft 4 kts 118°
2026-05-07 05:33 53.63390 10.00229 46 ft 4 kts 161°
2026-05-07 05:33 53.63405 10.00224 51 ft 1 kts 175°
2026-05-07 05:34 53.63407 10.00223 51 ft 0 kts 175°
2026-05-07 05:35 53.63365 10.00229 48 ft 14 kts 175°
2026-05-07 05:36 53.63217 10.00247 49 ft 29 kts 175°
2026-05-07 05:36 53.63006 10.00192 44 ft 33 kts 210°
2026-05-07 05:36 53.62813 9.99983 45 ft 33 kts 219°
2026-05-07 05:36 53.62648 9.99780 44 ft 24 kts 241°
2026-05-07 05:37 53.62611 9.99512 44 ft 24 kts 260°
2026-05-07 05:37 53.62582 9.99238 45 ft 24 kts 259°
2026-05-07 05:37 53.62550 9.98959 46 ft 24 kts 258°
2026-05-07 05:37 53.62516 9.98674 46 ft 25 kts 259°
2026-05-07 05:38 53.62482 9.98380 45 ft 26 kts 258°
2026-05-07 05:38 53.62425 9.98089 43 ft 27 kts 238°
2026-05-07 05:38 53.62307 9.97842 44 ft 27 kts 230°
2026-05-07 05:38 53.62183 9.97591 43 ft 28 kts 230°
2026-05-07 05:39 53.62056 9.97334 43 ft 29 kts 230°
2026-05-07 05:39 53.61925 9.97070 42 ft 30 kts 230°
2026-05-07 05:39 53.61790 9.96801 41 ft 30 kts 230°
2026-05-07 05:39 53.61680 9.96574 40 ft 24 kts 239°
2026-05-07 05:40 53.61717 9.96397 41 ft 15 kts 348°
2026-05-07 05:40 53.61818 9.96408 42 ft 15 kts 11°
2026-05-07 05:40 53.61895 9.96517 42 ft 15 kts 50°
2026-05-07 05:40 53.62053 9.96834 42 ft 70 kts 50°
2026-05-07 05:41 53.62513 9.97760 44 ft 134 kts 50°
2026-05-07 05:41 53.63189 9.99138 318 ft 160 kts 51°
2026-05-07 05:41 53.63917 10.00603 992 ft 169 kts 52°
2026-05-07 05:41 53.64717 10.02233 1394 ft 191 kts 53°
2026-05-07 05:42 53.65582 10.04011 2070 ft 198 kts 54°
2026-05-07 05:42 53.66465 10.05818 2884 ft 201 kts 53°
2026-05-07 05:42 53.67357 10.07636 3687 ft 202 kts 53°
2026-05-07 05:42 53.68294 10.09426 4454 ft 207 kts 41°
2026-05-07 05:43 53.69613 10.10449 5168 ft 216 kts
2026-05-07 05:43 53.71126 10.10090 5791 ft 234 kts 337°
2026-05-07 05:43 53.72379 10.08136 6122 ft 263 kts 304°
2026-05-07 05:43 53.73289 10.05340 6664 ft 276 kts 299°
2026-05-07 05:44 53.74147 10.02409 7425 ft 280 kts 297°
2026-05-07 05:44 53.74758 9.99279 8204 ft 285 kts 279°
2026-05-07 05:44 53.74733 9.95921 8994 ft 289 kts 260°
2026-05-07 05:44 53.74095 9.92693 9808 ft 292 kts 247°
2026-05-07 05:45 53.73278 9.89519 10365 ft 303 kts 248°
2026-05-07 05:45 53.72417 9.86125 10539 ft 326 kts 248°
2026-05-07 05:45 53.71503 9.82503 10866 ft 341 kts 248°
2026-05-07 05:45 53.70567 9.78800 11508 ft 345 kts 248°
2026-05-07 05:46 53.69620 9.75062 12219 ft 348 kts 248°
2026-05-07 05:46 53.68662 9.71299 12932 ft 350 kts 248°
2026-05-07 05:46 53.67698 9.67516 13632 ft 353 kts 248°
2026-05-07 05:46 53.66721 9.63710 14290 ft 355 kts 246°
2026-05-07 05:47 53.65460 9.60115 14917 ft 359 kts 234°
2026-05-07 05:47 53.63749 9.57029 15542 ft 363 kts 221°
2026-05-07 05:47 53.61663 9.54615 16172 ft 367 kts 210°
2026-05-07 05:47 53.59408 9.52567 16807 ft 369 kts 210°
2026-05-07 05:48 53.57140 9.50498 17435 ft 372 kts 210°
2026-05-07 05:48 53.54857 9.48412 18067 ft 375 kts 210°
2026-05-07 05:48 53.52554 9.46312 18635 ft 378 kts 210°
2026-05-07 05:48 53.50237 9.44202 19176 ft 380 kts 210°
2026-05-07 05:49 53.47901 9.42076 19729 ft 383 kts 210°
2026-05-07 05:49 53.45552 9.39939 20293 ft 385 kts 210°
2026-05-07 05:49 53.43192 9.37788 20854 ft 388 kts 210°
2026-05-07 05:49 53.40815 9.35623 21404 ft 390 kts 210°
2026-05-07 05:50 53.38420 9.33452 21952 ft 393 kts 209°
2026-05-07 05:50 53.36011 9.31273 22483 ft 395 kts 209°
2026-05-07 05:50 53.33565 9.29144 22997 ft 398 kts 205°
2026-05-07 05:50 53.30945 9.27605 23480 ft 402 kts 195°
2026-05-07 05:51 53.28188 9.26709 23895 ft 405 kts 191°
2026-05-07 05:51 53.25406 9.25886 24303 ft 408 kts 191°
2026-05-07 05:51 53.22606 9.25056 24710 ft 410 kts 191°
2026-05-07 05:51 53.20742 9.24502 24962 ft 412 kts 191°
2026-05-07 05:52 53.16953 9.23375 25488 ft 415 kts 191°
2026-05-07 05:52 53.15068 9.22818 25745 ft 417 kts 191°
2026-05-07 05:52 53.12206 9.21977 26130 ft 419 kts 191°
2026-05-07 05:52 53.09323 9.21131 26512 ft 421 kts 191°
2026-05-07 05:53 53.06430 9.20277 26889 ft 424 kts 191°
2026-05-07 05:53 53.03478 9.19400 27266 ft 426 kts 191°
2026-05-07 05:53 53.00591 9.18540 27629 ft 429 kts 191°
2026-05-07 05:53 52.97606 9.17641 28001 ft 431 kts 193°
2026-05-07 05:54 52.94719 9.16286 28348 ft 432 kts 201°
2026-05-07 05:54 52.91984 9.14212 28697 ft 433 kts 209°
2026-05-07 05:54 52.89316 9.11857 29030 ft 436 kts 209°
2026-05-07 05:54 52.86632 9.09494 29358 ft 438 kts 209°
2026-05-07 05:55 52.83934 9.07128 29722 ft 440 kts 208°
2026-05-07 05:55 52.81217 9.04755 30066 ft 443 kts 208°
2026-05-07 05:55 52.78488 9.02374 30359 ft 445 kts 208°
2026-05-07 05:55 52.75781 9.00009 30644 ft 447 kts 208°
2026-05-07 05:56 52.73035 8.97619 31046 ft 446 kts 208°
2026-05-07 05:56 52.70257 8.95205 31465 ft 445 kts 208°
2026-05-07 05:56 52.67522 8.92835 31863 ft 444 kts 208°
2026-05-07 05:56 52.64793 8.90471 32250 ft 443 kts 208°
2026-05-07 05:57 52.62065 8.88107 32634 ft 442 kts 208°
2026-05-07 05:57 52.59344 8.85752 33016 ft 442 kts 208°
2026-05-07 05:57 52.56623 8.83402 33388 ft 441 kts 208°
2026-05-07 05:57 52.53909 8.81056 33757 ft 441 kts 208°
2026-05-07 05:58 52.51196 8.78710 34088 ft 440 kts 208°
2026-05-07 05:58 52.48485 8.76372 34379 ft 440 kts 208°
2026-05-07 05:58 52.45776 8.74038 34655 ft 440 kts 208°
2026-05-07 05:58 52.43063 8.71706 34913 ft 440 kts 208°
2026-05-07 05:59 52.40348 8.69379 35176 ft 440 kts 208°
2026-05-07 05:59 52.37634 8.67062 35443 ft 440 kts 208°
2026-05-07 05:59 52.34915 8.64748 35711 ft 440 kts 208°
2026-05-07 05:59 52.32195 8.62433 35919 ft 441 kts 208°
2026-05-07 06:00 52.29478 8.60117 35968 ft 440 kts 208°
2026-05-07 06:00 52.24527 8.54354 35971 ft 438 kts 221°
2026-05-07 06:01 52.19910 8.47872 35972 ft 438 kts 221°
2026-05-07 06:01 52.15271 8.41433 35968 ft 438 kts 220°
2026-05-07 06:02 52.10626 8.34996 35976 ft 439 kts 220°
2026-05-07 06:02 52.05971 8.28560 35980 ft 440 kts 220°
2026-05-07 06:03 52.01310 8.22127 35983 ft 440 kts 220°
2026-05-07 06:03 51.96646 8.15702 35987 ft 440 kts 220°
2026-05-07 06:04 51.91975 8.09280 35988 ft 440 kts 220°
2026-05-07 06:04 51.87299 8.02877 35988 ft 440 kts 220°
2026-05-07 06:05 51.82616 7.96491 35989 ft 441 kts 220°
2026-05-07 06:05 51.77925 7.90106 35995 ft 441 kts 220°
2026-05-07 06:06 51.73227 7.83726 36004 ft 442 kts 220°
2026-05-07 06:06 51.68520 7.77347 36014 ft 442 kts 220°
2026-05-07 06:07 51.63809 7.70983 36018 ft 442 kts 220°
2026-05-07 06:07 51.59086 7.64640 36021 ft 442 kts 220°
2026-05-07 06:08 51.54364 7.58301 36019 ft 442 kts 220°
2026-05-07 06:08 51.49644 7.51964 36020 ft 442 kts 220°
2026-05-07 06:09 51.44917 7.45643 36019 ft 442 kts 220°
2026-05-07 06:09 51.40182 7.39359 36014 ft 442 kts 220°
2026-05-07 06:10 51.35443 7.33086 36013 ft 442 kts 220°
2026-05-07 06:10 51.30705 7.26808 36008 ft 442 kts 220°
2026-05-07 06:11 51.25995 7.20583 36018 ft 443 kts 220°
2026-05-07 06:11 51.21245 7.14333 36025 ft 443 kts 220°
2026-05-07 06:12 51.16497 7.08084 36028 ft 442 kts 220°
2026-05-07 06:12 51.11744 7.01853 36030 ft 442 kts 220°
2026-05-07 06:13 51.06989 6.95643 36017 ft 443 kts 220°
2026-05-07 06:13 51.02224 6.89445 36020 ft 442 kts 220°
2026-05-07 06:14 50.97453 6.83270 36023 ft 442 kts 219°
2026-05-07 06:14 50.92684 6.77104 36022 ft 442 kts 219°
2026-05-07 06:15 50.87920 6.70952 36022 ft 442 kts 220°
2026-05-07 06:15 50.82914 6.65197 36018 ft 443 kts 208°
2026-05-07 06:16 50.77142 6.62080 36018 ft 444 kts 191°
2026-05-07 06:16 50.71074 6.60247 36013 ft 444 kts 192°
2026-05-07 06:17 50.65007 6.58385 36011 ft 444 kts 192°
2026-05-07 06:17 50.58894 6.56515 36008 ft 444 kts 192°
2026-05-07 06:18 50.52820 6.54681 36008 ft 445 kts 192°
2026-05-07 06:18 50.46746 6.52843 36001 ft 444 kts 192°
2026-05-07 06:19 50.40672 6.51001 35999 ft 445 kts 192°
2026-05-07 06:19 50.34638 6.49178 35994 ft 445 kts 192°
2026-05-07 06:20 50.28560 6.47356 35990 ft 445 kts 192°
2026-05-07 06:20 50.22481 6.45534 35990 ft 445 kts 192°
2026-05-07 06:21 50.16359 6.43706 35990 ft 445 kts 192°
2026-05-07 06:21 50.10316 6.41906 35992 ft 446 kts 192°
2026-05-07 06:22 50.04181 6.40086 35995 ft 446 kts 192°
2026-05-07 06:22 49.95041 6.37366 35993 ft 446 kts 191°
2026-05-07 06:23 49.88981 6.35572 35996 ft 446 kts 191°
2026-05-07 06:23 49.82876 6.33784 36009 ft 447 kts 191°
2026-05-07 06:24 49.76728 6.31985 36012 ft 446 kts 191°
2026-05-07 06:24 49.70629 6.30193 36014 ft 446 kts 191°
2026-05-07 06:25 49.64457 6.29325 36019 ft 448 kts 176°
2026-05-07 06:25 49.58422 6.31585 36022 ft 449 kts 158°
2026-05-07 06:26 49.52704 6.35309 36010 ft 449 kts 158°
2026-05-07 06:26 49.46933 6.39017 36016 ft 450 kts 158°
2026-05-07 06:27 49.41181 6.42820 36011 ft 450 kts 157°
2026-05-07 06:27 49.35465 6.46761 36018 ft 451 kts 156°
2026-05-07 06:28 49.29743 6.50696 36017 ft 451 kts 157°
2026-05-07 06:28 49.24008 6.54583 36025 ft 451 kts 157°
2026-05-07 06:29 49.18271 6.58448 36023 ft 451 kts 157°
2026-05-07 06:29 49.12526 6.62312 36031 ft 451 kts 157°
2026-05-07 06:30 49.06785 6.66164 36041 ft 451 kts 157°
2026-05-07 06:30 49.01015 6.69900 36039 ft 450 kts 163°
2026-05-07 06:31 48.94887 6.71475 36034 ft 447 kts 181°
2026-05-07 06:31 48.88671 6.71231 36038 ft 447 kts 182°
2026-05-07 06:32 48.82452 6.70986 36036 ft 447 kts 182°
2026-05-07 06:32 48.76236 6.70756 36043 ft 447 kts 182°
2026-05-07 06:33 48.71067 6.70555 36039 ft 447 kts 182°
2026-05-07 06:33 48.64848 6.70301 36047 ft 447 kts 182°
2026-05-07 06:34 48.58634 6.70055 36044 ft 447 kts 182°
2026-05-07 06:34 48.52409 6.69817 35810 ft 448 kts 182°
2026-05-07 06:35 48.49299 6.69699 35417 ft 447 kts 182°
2026-05-07 06:35 48.46193 6.69583 35033 ft 446 kts 182°
2026-05-07 06:35 48.43088 6.69462 34655 ft 446 kts 182°
2026-05-07 06:35 48.39989 6.69338 34292 ft 445 kts 182°
2026-05-07 06:36 48.36902 6.69214 33887 ft 442 kts 182°
2026-05-07 06:36 48.33833 6.69098 33440 ft 440 kts 182°
2026-05-07 06:36 48.30784 6.68986 33000 ft 437 kts 182°
2026-05-07 06:36 48.27753 6.68870 32563 ft 434 kts 182°
2026-05-07 06:37 48.24743 6.68752 32138 ft 432 kts 182°
2026-05-07 06:37 48.21750 6.68638 31718 ft 429 kts 182°
2026-05-07 06:37 48.18771 6.68525 31309 ft 427 kts 182°
2026-05-07 06:37 48.15814 6.68413 30899 ft 424 kts 182°
2026-05-07 06:38 48.12869 6.68301 30499 ft 422 kts 181°
2026-05-07 06:38 48.09942 6.68192 30099 ft 420 kts 181°
2026-05-07 06:38 48.07033 6.68084 29636 ft 417 kts 181°
2026-05-07 06:38 48.04140 6.67974 29171 ft 414 kts 181°
2026-05-07 06:39 48.01270 6.67865 28717 ft 411 kts 181°
2026-05-07 06:39 47.98415 6.67759 28270 ft 409 kts 181°
2026-05-07 06:39 47.95585 6.67653 27835 ft 406 kts 181°
2026-05-07 06:39 47.92770 6.67549 27398 ft 403 kts 182°
2026-05-07 06:40 47.89975 6.67440 26973 ft 401 kts 182°
2026-05-07 06:40 47.87196 6.67329 26552 ft 398 kts 182°
2026-05-07 06:40 47.84436 6.67221 26139 ft 396 kts 182°
2026-05-07 06:40 47.81689 6.67120 25733 ft 394 kts 182°
2026-05-07 06:41 47.78956 6.67022 25326 ft 392 kts 182°
2026-05-07 06:41 47.76239 6.66924 24930 ft 389 kts 182°
2026-05-07 06:41 47.73540 6.66827 24539 ft 387 kts 182°
2026-05-07 06:41 47.70857 6.66732 24153 ft 384 kts 182°
2026-05-07 06:42 47.68228 6.66639 23774 ft 382 kts 182°
2026-05-07 06:42 47.65579 6.66540 23365 ft 380 kts 182°
2026-05-07 06:42 47.62949 6.66436 22915 ft 377 kts 182°
2026-05-07 06:42 47.60333 6.66329 22486 ft 375 kts 182°
2026-05-07 06:43 47.57737 6.66227 22048 ft 372 kts 182°
2026-05-07 06:43 47.55156 6.66128 21617 ft 370 kts 182°
2026-05-07 06:43 47.52591 6.66029 21193 ft 367 kts 182°
2026-05-07 06:43 47.50043 6.65929 20783 ft 365 kts 182°
2026-05-07 06:44 47.47513 6.65834 20374 ft 363 kts 182°
2026-05-07 06:44 47.44998 6.65744 19972 ft 361 kts 182°
2026-05-07 06:44 47.42498 6.65653 19576 ft 358 kts 182°
2026-05-07 06:44 47.40012 6.65563 19182 ft 356 kts 182°
2026-05-07 06:45 47.37544 6.65473 18794 ft 354 kts 182°
2026-05-07 06:45 47.35091 6.65382 18416 ft 351 kts 182°
2026-05-07 06:45 47.32653 6.65294 18072 ft 350 kts 183°
2026-05-07 06:45 47.30229 6.65209 17719 ft 348 kts 183°
2026-05-07 06:46 47.27820 6.65122 17372 ft 345 kts 184°
2026-05-07 06:46 47.25446 6.64780 17022 ft 341 kts 191°
2026-05-07 06:46 47.23149 6.63979 16678 ft 338 kts 199°
2026-05-07 06:46 47.20965 6.62758 16339 ft 334 kts 206°
2026-05-07 06:47 47.18924 6.61157 16010 ft 331 kts 213°
2026-05-07 06:47 47.17054 6.59211 15673 ft 328 kts 220°
2026-05-07 06:47 47.15350 6.57007 15342 ft 325 kts 223°
2026-05-07 06:47 47.13670 6.54798 15021 ft 323 kts 223°
2026-05-07 06:48 47.11996 6.52607 14697 ft 321 kts 223°
2026-05-07 06:48 47.10333 6.50433 14381 ft 319 kts 223°
2026-05-07 06:48 47.08679 6.48271 14068 ft 317 kts 223°
2026-05-07 06:48 47.07034 6.46126 13748 ft 315 kts 223°
2026-05-07 06:49 47.05401 6.43999 13390 ft 313 kts 223°
2026-05-07 06:49 47.03778 6.41887 13039 ft 311 kts 223°
2026-05-07 06:49 47.02166 6.39788 12697 ft 309 kts 223°
2026-05-07 06:49 47.00566 6.37706 12364 ft 307 kts 223°
2026-05-07 06:50 46.98973 6.35635 12106 ft 306 kts 223°
2026-05-07 06:50 46.97381 6.33566 11844 ft 305 kts 223°
2026-05-07 06:50 46.95796 6.31508 11585 ft 304 kts 223°
2026-05-07 06:50 46.94240 6.29485 11345 ft 303 kts 223°
2026-05-07 06:51 46.92667 6.27443 11089 ft 302 kts 223°
2026-05-07 06:51 46.91103 6.25414 10840 ft 300 kts 223°
2026-05-07 06:51 46.89545 6.23391 10592 ft 299 kts 223°
2026-05-07 06:51 46.87994 6.21373 10346 ft 298 kts 223°
2026-05-07 06:52 46.86453 6.19363 10100 ft 296 kts 223°
2026-05-07 06:52 46.84924 6.17371 9837 ft 291 kts 223°
2026-05-07 06:52 46.83429 6.15422 9575 ft 285 kts 223°
2026-05-07 06:52 46.81966 6.13516 9302 ft 279 kts 223°
2026-05-07 06:53 46.80515 6.11626 9039 ft 274 kts 223°
2026-05-07 06:53 46.79113 6.09801 8778 ft 273 kts 223°
2026-05-07 06:53 46.77698 6.07960 8517 ft 272 kts 223°
2026-05-07 06:53 46.76286 6.06129 8258 ft 271 kts 223°
2026-05-07 06:54 46.74874 6.04304 8066 ft 271 kts 223°
2026-05-07 06:54 46.73466 6.02483 8011 ft 271 kts 223°
2026-05-07 06:54 46.72054 6.00657 8010 ft 271 kts 223°
2026-05-07 06:54 46.70641 5.98833 8012 ft 272 kts 223°
2026-05-07 06:55 46.69225 5.97004 8009 ft 272 kts 223°
2026-05-07 06:55 46.67808 5.95177 8007 ft 272 kts 223°
2026-05-07 06:55 46.66391 5.93349 8004 ft 272 kts 223°
2026-05-07 06:55 46.64972 5.91526 8009 ft 272 kts 223°
2026-05-07 06:56 46.63553 5.89708 8009 ft 272 kts 223°
2026-05-07 06:56 46.62132 5.87887 8009 ft 272 kts 223°
2026-05-07 06:56 46.60695 5.86095 8005 ft 273 kts 217°
2026-05-07 06:56 46.59031 5.84779 8007 ft 274 kts 201°
2026-05-07 06:57 46.57166 5.84169 8011 ft 277 kts 186°
2026-05-07 06:57 46.55238 5.84326 8011 ft 279 kts 170°
2026-05-07 06:57 46.53401 5.85258 8006 ft 282 kts 154°
2026-05-07 06:57 46.51754 5.86814 8007 ft 283 kts 146°
2026-05-07 06:58 46.50138 5.88448 8009 ft 283 kts 147°
2026-05-07 06:58 46.48520 5.90078 8007 ft 283 kts 147°
2026-05-07 06:58 46.46898 5.91704 8008 ft 283 kts 147°
2026-05-07 06:58 46.45278 5.93321 8008 ft 283 kts 147°
2026-05-07 06:59 46.43656 5.94937 8010 ft 283 kts 147°
2026-05-07 06:59 46.42035 5.96554 8010 ft 283 kts 147°
2026-05-07 06:59 46.40419 5.98172 8006 ft 283 kts 147°
2026-05-07 06:59 46.38821 5.99837 8006 ft 283 kts 140°
2026-05-07 07:00 46.37574 6.02040 8003 ft 285 kts 119°
2026-05-07 07:00 46.36927 6.04743 8007 ft 286 kts 98°
2026-05-07 07:00 46.36968 6.07612 8009 ft 287 kts 78°
2026-05-07 07:00 46.37685 6.10289 8008 ft 287 kts 57°
2026-05-07 07:01 46.38966 6.12488 8017 ft 285 kts 44°
2026-05-07 07:01 46.40334 6.14479 8003 ft 271 kts 44°
2026-05-07 07:01 46.41624 6.16370 8002 ft 257 kts 44°
2026-05-07 07:01 46.42854 6.18178 8006 ft 247 kts 44°
2026-05-07 07:02 46.44054 6.19939 7894 ft 244 kts 44°
2026-05-07 07:02 46.45243 6.21682 7776 ft 242 kts 44°
2026-05-07 07:02 46.46426 6.23423 7641 ft 242 kts 45°
2026-05-07 07:02 46.47603 6.25165 7519 ft 242 kts 45°
2026-05-07 07:03 46.48782 6.26911 7391 ft 242 kts 45°
2026-05-07 07:03 46.49959 6.28656 7260 ft 242 kts 45°
2026-05-07 07:03 46.51134 6.30398 7143 ft 242 kts 45°
2026-05-07 07:03 46.52185 6.32288 7028 ft 241 kts 64°
2026-05-07 07:04 46.52566 6.34630 7009 ft 240 kts 93°
2026-05-07 07:04 46.52179 6.36952 7003 ft 237 kts 121°
2026-05-07 07:04 46.51152 6.38784 7001 ft 235 kts 139°
2026-05-07 07:04 46.49975 6.40427 7001 ft 235 kts 138°
2026-05-07 07:05 46.48790 6.42060 7004 ft 234 kts 143°
2026-05-07 07:05 46.47349 6.43034 6999 ft 229 kts 174°
2026-05-07 07:05 46.45797 6.42823 7000 ft 226 kts 204°
2026-05-07 07:05 46.44523 6.41546 6842 ft 224 kts 225°
2026-05-07 07:06 46.43442 6.39925 6573 ft 223 kts 227°
2026-05-07 07:06 46.42370 6.38310 6296 ft 222 kts 226°
2026-05-07 07:06 46.41295 6.36712 6004 ft 221 kts 226°
2026-05-07 07:06 46.40221 6.35120 5685 ft 221 kts 226°
2026-05-07 07:07 46.39150 6.33532 5390 ft 220 kts 226°
2026-05-07 07:07 46.38082 6.31951 5095 ft 219 kts 225°
2026-05-07 07:07 46.37016 6.30373 4802 ft 219 kts 225°
2026-05-07 07:07 46.35970 6.28826 4527 ft 218 kts 225°
2026-05-07 07:08 46.34935 6.27295 4228 ft 207 kts 225°
2026-05-07 07:08 46.33958 6.25853 3935 ft 195 kts 226°
2026-05-07 07:08 46.33035 6.24489 3674 ft 185 kts 226°
2026-05-07 07:08 46.32166 6.23206 3452 ft 170 kts 226°
2026-05-07 07:09 46.31349 6.22001 3226 ft 161 kts 226°
2026-05-07 07:09 46.30601 6.20898 3008 ft 150 kts 226°
2026-05-07 07:09 46.29890 6.19850 2805 ft 147 kts 226°
2026-05-07 07:09 46.29178 6.18801 2591 ft 146 kts 226°
2026-05-07 07:10 46.28466 6.17752 2387 ft 146 kts 226°
2026-05-07 07:10 46.27752 6.16701 2177 ft 146 kts 225°
2026-05-07 07:10 46.27039 6.15652 1986 ft 146 kts 225°
2026-05-07 07:10 46.26326 6.14603 1788 ft 146 kts 225°
2026-05-07 07:11 46.25613 6.13555 1605 ft 146 kts 225°
2026-05-07 07:11 46.24905 6.12521 1419 ft 142 kts 225°
2026-05-07 07:11 46.24256 6.11562 1385 ft 119 kts 226°
2026-05-07 07:11 46.23770 6.10843 1398 ft 84 kts 225°
2026-05-07 07:12 46.23443 6.10358 1409 ft 43 kts 226°
2026-05-07 07:12 46.23260 6.10150 1411 ft 32 kts 205°
2026-05-07 07:12 46.23118 6.10090 1414 ft 0 kts 177°
2026-05-07 07:12 46.23117 6.10090 1414 ft 1 kts 172°
2026-05-07 07:13 46.23105 6.10098 1413 ft 3 kts 150°
2026-05-07 07:13 46.23083 6.10125 1411 ft 7 kts 139°
2026-05-07 07:13 46.23017 6.10216 1408 ft 17 kts 135°
2026-05-07 07:13 46.22963 6.10342 1406 ft 13 kts 75°
2026-05-07 07:14 46.22967 6.10415 1410 ft 7 kts 123°
2026-05-07 07:14 46.22959 6.10434 1410 ft 0 kts 131°
2026-05-07 07:14 46.22954 6.10440 1408 ft 1 kts 134°
2026-05-07 07:14 46.22951 6.10445 1414 ft 0 kts 135°